STARLINK-3247, 49747

Orbit data source: Space-Track

STARLINK-3247, 49747 is a payload satellite owned by SpaceX/Seattle (US) in LEO that was launched on Thu, 02 Dec 2021 UTC via an FALCON 9 launch vehicle from the Air Force Eastern Test Range (AFETR). Payload-class satellites include a variety of spacecraft equipped with specific instruments for various scientific and technological missions. These include communications satellites like Starlink; space stations such as the ISS; scientific satellites like the Hubble; Earth observation satellites from companies like Planet Labs, Umbra, and HawkEye 360; GPS; miniature CubeSats for education and research; and military/defense satellites.

Loading next visibility...
Identifier
49747, 2021-115Z
Orbit
LEO
Country
Flag of USUS
Related business
Manufacturer
SpaceX/Seattle
Mission
Operational Commercial Communications
Bus & Motor
STARLINK, Unknown motor
Mass
290 kg wet, ~270 kg dry
Launch date (UTC)
2021-12-02 (5 years ago)
Launch vehicle
FALCON 9
Launch site
Air Force Eastern Test Range (AFETR)
Object type
Payload
Rocket body
Debris
Shape & HBR
Box + 1 Pan, 10.1 m
Radar Cross Section
13.562 m², Large (>1 m²)

Expand to show TLE details & history
Last TLE update: 2 days ago

TLE from 2 days ago
0 STARLINK-3247
1 49747U 21115Z   26171.04180043  .00001699  00000-0  12481-3 0  9992
2 49747  53.1611  49.5317 0001223  92.6838 267.4293 15.08834790250985
Epoch: 2026-06-20T01:00Z
TLE epoch observation values (Epoch: 2026-06-20T01:00:11.557Z)
Latitude
-0.00004°
Longitude
126.2214°
Altitude
540.689 km
Speed
7.593 km/s
True Right ascension
03h 18m 07s
True Declination
0° 00' 00"
Sunlit
Object was in daylight at epoch
Visualization orbit readout
Latitude
Unknown
Longitude
Unknown
Altitude
Unknown
Speed
Unknown
Apparent Right ascension
Unknown
Apparent Declination
Unknown
Sunlit
N/A
Visualization observer readout
Local Sidereal Time
21:31:13
Azimuth
Unknown
Elevation
Unknown
Doppler factor
Unknown
Orbital elements
Apogee altitude
540.859 km
Perigee altitude
539.167 km
Semi-major axis
6,918.15 km
Eccentricity
0.00012
Inclination
53.1611°
RAAN
49.5317°
Arg. of periapsis
92.6838°
True anomaly
267.4153°
Mean anomaly
267.4293°
Eccentric anomaly
267.4223°
Mean motion
3.77188 °/min
Orbital period
95.44 mins
BSTAR
0.00012481
Loading maneuver chart data...
Computing Atmospheric mass density...
Loading historical data...
Loading historical data...
Loading historical data...
Loading historical data...
Loading historical data...
Loading historical data...
Loading historical data...

Documentation

Showing up to 5 results
|